Location: Mason
(37.5237°N, 89.2543°W)
Time: 07:26:51
(UTC+00:00)

SL-19 R/B - Pass Details

Date: 24 January 2021
Orbit: 357 x 805 km, 99.4° (Epoch: 08 March)

Event Time Altitude Azimuth Distance (km) Brightness Sun altitude
Rises 12:17:47 0° 10° (N) 2,720 7.8 -9.8°
Reaches altitude 10° 12:20:04 10° 8° (N) 1,744 6.8 -9.4°
Maximum altitude 12:23:43 62° 287° (WNW) 527 3.9 -8.7°
Drops below altitude 10° 12:26:54 10° 206° (SSW) 1,514 6.5 -8.1°
Sets 12:28:46 0° 203° (SSW) 2,320 7.5 -7.8°
